Location: Table Mountain
(47.2500°N, 120.5778°W)
Time: 17:49:09
(UTC-07:00)

VELOX 1 - Visible Passes

Search period start: 20 August 2018 00:00
Search period end: 30 August 2018 00:00
Orbit: 629 x 646 km, 98.2° (Epoch: 20 August)

Date Brightness Start Highest point End Pass type
(mag) Time Alt. Az. Time Alt. Az. Time Alt. Az.
20 Aug ? 00:39:26 27° NE 00:39:26 27° NE 00:42:22 10° N visible
20 Aug ? 02:16:57 22° NW 02:16:57 22° NW 02:18:54 10° NNW visible
21 Aug ? 01:02:22 35° NNE 01:02:22 35° NNE 01:05:14 10° N visible
21 Aug ? 02:39:54 14° NW 02:39:54 14° NW 02:40:56 10° NW visible
21 Aug ? 23:47:46 11° ENE 23:47:53 11° NE 23:48:49 10° NE visible
22 Aug ? 01:25:18 36° N 01:25:18 36° N 01:27:57 10° N visible
23 Aug ? 00:10:42 16° NE 00:10:42 16° NE 00:12:56 10° NNE visible
23 Aug ? 01:48:14 29° NNW 01:48:14 29° NNW 01:50:30 10° NNW visible
24 Aug ? 00:33:38 23° NE 00:33:38 23° NE 00:36:08 10° N visible
24 Aug ? 02:11:10 21° NW 02:11:10 21° NW 02:12:54 10° NNW visible
25 Aug ? 00:56:35 29° NNE 00:56:35 29° NNE 00:59:04 10° N visible
25 Aug ? 02:34:07 14° NW 02:34:07 14° NW 02:35:02 10° NW visible
26 Aug ? 01:19:31 30° N 01:19:31 30° N 01:21:49 10° N visible
27 Aug ? 00:04:55 14° NE 00:04:55 14° NE 00:06:32 10° NNE visible
27 Aug ? 01:42:27 26° NNW 01:42:27 26° NNW 01:44:25 10° NNW visible
28 Aug ? 00:27:51 19° NE 00:27:51 19° NE 00:29:52 10° NNE visible
28 Aug ? 02:05:23 20° NW 02:05:23 20° NW 02:06:51 10° NNW visible
29 Aug ? 00:50:48 24° NNE 00:50:48 24° NNE 00:52:52 10° N visible
29 Aug ? 02:28:19 14° NW 02:28:19 14° NW 02:29:04 10° NW visible
